Flag for Canada Weather past 2 weeks in Yellowknife, Northwest Territories, Canada

Now
61 °F

Broken clouds.


Feels Like: 61 °F
Forecast: 53 / 72 °F
Wind: 2 mph from West

Location: Yellowknife

Current Time: Aug 2, 2015 at 9:47:29 PM

Latest Report: Aug 2, 2015 at 9:00 PM


Visibility: 15 mi

Pressure: 30.01 "Hg

Humidity: 42%

Dew point: 37 °F

Location of YellowknifeLocation

Historic Weather in Yellowknife — Graph

°F

Yellowknife temperature yesterday

Maximum temperature yesterday: 72 °F (at 1:00 PM)
Minimum temperature yesterday: 52 °F (at 12:00 AM)
Average temperature yesterday: 64 °F

Past Weeks' High & Low Weather Summary

 TemperatureHumidityPressure
High73 °F (Jul 26, 6:00 PM)100% (Aug 2, 3:00 AM)30.05 "Hg (Aug 2, 3:00 AM)
Low50 °F (Jul 24, 4:00 AM)28% (Aug 2, 8:00 PM)29.57 "Hg (Jul 18, 8:00 PM)
Average63 °F60%29.82 "Hg
* Reported Jul 18 8:00 PM — Aug 2 8:00 PM, Yellowknife, Weather by CustomWeather, © 2015

Note: Actual official high and low records may vary slightly from our data, if they occured in-between our weather recording intervals... More about our weather records

Advertising

Yellowknife weather history for previous 24 hours

 ConditionsComfort  
Time TempWeatherWind HumidityBarometerVisibility
8:00 PM
Sun, Aug 2
68 °FPartly sunny.5 mph28%30.01 "Hg15 mi
7:00 PM70 °FBroken clouds.8 mph31%30.01 "Hg15 mi
6:00 PM70 °FPartly sunny.8 mph38%30.01 "Hg15 mi
5:00 PM72 °FPartly sunny.6 mph36%30.01 "Hg15 mi
4:00 PM72 °FPartly sunny.3 mph36%30.02 "Hg15 mi
3:00 PM72 °FBroken clouds.5 mph38%30.03 "Hg15 mi
2:00 PM72 °FBroken clouds.2 mph36%30.03 "Hg15 mi
1:00 PM72 °FScattered clouds.7 mph38%30.04 "Hg15 mi
12:00 PM70 °FScattered clouds.8 mph35%30.05 "Hg15 mi
11:00 AM66 °FScattered clouds.3 mph43%30.05 "Hg15 mi
10:00 AM66 °FPassing clouds.8 mph46%30.04 "Hg15 mi
9:00 AM64 °FPassing clouds.7 mph52%30.04 "Hg15 mi
8:00 AM61 °FPassing clouds.6 mph63%30.04 "Hg15 mi
7:00 AM57 °FPassing clouds.2 mph77%30.05 "Hg15 mi
6:00 AM55 °FPassing clouds.5 mph77%30.04 "Hg15 mi
5:00 AM54 °FPassing clouds.3 mph82%30.04 "Hg15 mi
4:00 AM50 °FPassing clouds.2 mph100%30.03 "Hg15 mi
3:00 AM52 °FPassing clouds.2 mph100%30.03 "Hg15 mi
2:00 AM55 °FPassing clouds.No wind88%30.02 "Hg15 mi
1:00 AM57 °FPassing clouds.3 mph72%30.01 "Hg15 mi
12:00 AM59 °FPassing clouds.2 mph63%30.01 "Hg15 mi
11:00 PM
Sat, Aug 1
59 °FScattered clouds.3 mph63%30.01 "Hg15 mi
10:00 PM64 °FScattered clouds.6 mph52%30.00 "Hg15 mi
9:00 PM68 °FScattered clouds.6 mph43%29.98 "Hg15 mi
Weather by CustomWeather, © 2015

See weather overviewHow to use our weather pages